Home > Weather > Paterson > Past weeks

Flag for U.S.A. Weather for the Past 2 Weeks in Paterson, New Jersey, U.S.A.

Now
24 °F

Clear.


Feels Like: 24 °F
Forecast: 24 / 40 °F
Wind: No wind

Location: Essex County Airport

Current Time: Feb 6, 2016 at 3:40:40 AM

Latest Report: Feb 6, 2016 at 2:53 AM


Visibility: 10 mi

Pressure: 30.39 "Hg

Humidity: 81%

Dew point: 19 °F

Location of PatersonLocation

Historic Weather in Paterson — Graph

°F

Paterson Temperature Yesterday

Maximum temperature yesterday: 42 °F (at 12:53 AM)
Minimum temperature yesterday: 28 °F (at 11:53 PM)
Average temperature yesterday: 35 °F

High & Low Weather Summary for the Past Weeks

 TemperatureHumidityPressure
High59 °F (Feb 1, 11:53 AM)97% (Feb 3, 3:53 PM)30.39 "Hg (Feb 3, 3:53 PM)
Low15 °F (Jan 25, 6:53 AM)30% (Jan 31, 3:53 PM)29.49 "Hg (Jan 29, 7:53 AM)
Average35 °F63%30.02 "Hg
* Reported Jan 22 1:53 AM — Feb 6 1:53 AM, Paterson, Weather by CustomWeather, © 2016

Note: Actual official high and low records may vary slightly from our data, if they occured in-between our weather recording intervals... More about our weather records

Advertising

Paterson Weather History for the Previous 24 Hours

 ConditionsComfort  
Time TempWeatherWind HumidityBarometerVisibility
1:53 AM
Sat, Feb 6
25 °FClear.No wind78%30.39 "Hg10 mi
12:53 AM27 °FClear.3 mph66%30.37 "Hg10 mi
11:53 PM
Fri, Feb 5
28 °FClear.No wind58%30.36 "Hg10 mi
10:53 PM31 °FClear.No wind49%30.36 "Hg10 mi
9:53 PM32 °FClear.No wind45%30.35 "Hg10 mi
8:53 PM33 °FClear.8 mph43%30.34 "Hg10 mi
7:53 PM34 °FClear.7 mph42%30.32 "Hg10 mi
6:53 PM35 °FClear.7 mph42%30.30 "Hg10 mi
5:53 PM36 °FClear.9 mph40%30.26 "Hg10 mi
4:53 PM37 °FPassing clouds.10 mph41%30.22 "Hg10 mi
3:53 PM39 °FPartly sunny.14 mph39%30.19 "Hg10 mi
2:53 PM40 °FPartly sunny.9 mph38%30.14 "Hg10 mi
1:53 PM40 °FOvercast.6 mph45%30.12 "Hg10 mi
12:53 PM35 °FSunny.3 mph78%30.11 "Hg10 mi
11:53 AM33 °FOvercast.No wind82%30.13 "Hg10 mi
10:53 AM32 °FMostly cloudy.No wind85%30.12 "Hg10 mi
10:00 AM32 °FLight snow. Ice fog.3 mph85%30.15 "Hg4 mi
8:55 AM32 °FLight snow. Ice fog.5 mph85%30.11 "Hg2 mi
8:01 AM32 °FSnow. Fog.9 mph88%30.09 "Hg1 mi
6:53 AM33 °FSnow. Fog.5 mph92%30.11 "Hg1 mi
5:53 AM33 °FLight snow. Fog.3 mph92%30.11 "Hg1 mi
5:02 AM33 °FLight snow. Fog.No wind92%30.07 "Hg1 mi
4:03 AM34 °FLight snow. Fog.3 mph92%30.05 "Hg2 mi
Weather by CustomWeather, © 2016

See weather overviewHow to use our weather pages